Date_and_time,latitude,longitude,wind_speed,RelWindDirFrom,WindDirFrom,air_pressure,air_temperature,relative_humidity,Temp,platform_speed_wrt_ground,air_pressure_at_mean_sea_level,platform_orientation
2018-06-02 23:40,50.630445,-96.9807683333333,18.3,22.0,114,978.06,13.6,100,15.47,0.0,1004.34,212.5
2018-06-02 23:50,50.6304433333333,-96.98077,17.6,20.9,115,978.14,13.6,100,15.47,0.0,1004.42,212.5
2018-06-03 00:00,50.63044,-96.98077,17.3,20.3,117,978.18,13.7,100,15.48,0.0,1004.46,345.5
2018-06-03 00:10,50.63043,-96.9807666666667,17.6,21.0,116,978.09,13.8,100,15.48,0.0,1004.37,345.5
2018-06-03 00:20,50.6304366666667,-96.9807666666667,16.1,20.4,115,977.97,13.9,100,15.48,0.0,1004.23,345.5
2018-06-03 00:30,50.6304366666667,-96.980765,15.3,17.9,117,977.95,13.9,100,15.45,0.0,1004.21,345.5
2018-06-03 00:40,50.63045,-96.9807616666667,14.4,18.3,115,977.90,14.0,100,15.42,0.0,1004.16,345.5
2018-06-03 00:50,50.6304466666667,-96.9807366666667,15.3,18.8,115,977.90,14.1,100,15.43,0.0,1004.15,345.5
2018-06-03 01:00,50.6304333333333,-96.980735,14.9,17.9,114,977.88,14.1,100,15.44,0.0,1004.13,60.9
2018-06-03 01:10,50.630445,-96.9807416666667,15.8,18.4,113,977.84,14.0,100,15.44,0.0,1004.09,60.9
2018-06-03 01:20,50.6304383333333,-96.98077,15.8,20.0,113,977.87,13.9,100,15.42,0.0,1004.13,60.9
2018-06-03 01:30,50.6304433333333,-96.9807733333333,15.6,18.5,115,977.87,13.9,100,15.41,0.0,1004.11,60.9
2018-06-03 01:40,50.6304383333333,-96.98077,13.8,16.7,110,977.95,13.9,100,15.41,0.0,1004.20,60.9
2018-06-03 01:50,50.63042,-96.9807733333333,13.4,16.1,107,978.04,13.9,100,15.40,0.0,1004.29,60.9
2018-06-03 02:00,50.630435,-96.980765,13.1,16.1,102,978.08,13.9,100,15.41,0.0,1004.32,14.5
2018-06-03 02:10,50.6304416666667,-96.9807583333333,12.5,16.0,101,978.15,13.9,100,15.40,0.0,1004.39,14.5
2018-06-03 02:20,50.630445,-96.9807566666667,11.9,14.1,100,978.26,13.9,100,15.41,0.0,1004.50,14.5
2018-06-03 02:30,50.630445,-96.9807583333333,10.5,13.7,99,978.40,13.9,100,15.38,0.0,1004.65,14.5
2018-06-03 02:40,50.630445,-96.98076,7.8,11.5,94,978.53,13.9,100,15.39,0.0,1004.77,14.5
2018-06-03 02:50,50.630445,-96.9807616666667,7.3,9.5,86,978.60,13.8,100,15.41,0.0,1004.85,14.5
2018-06-03 03:00,50.630445,-96.9807616666667,7.7,9.7,93,978.67,13.8,100,15.40,0.0,1004.92,90.0
2018-06-03 03:10,50.6304433333333,-96.9807616666667,7.5,9.3,93,978.71,13.8,100,15.41,0.0,1004.97,90.0
2018-06-03 03:20,50.6304433333333,-96.98076,7.4,9.6,91,978.78,13.8,100,15.40,0.0,1005.04,90.0
2018-06-03 03:30,50.630445,-96.9807466666667,7.7,9.8,83,978.84,13.7,100,15.39,0.0,1005.10,90.0
2018-06-03 03:40,50.6304366666667,-96.980765,6.5,9.4,88,978.94,13.7,100,15.34,0.0,1005.21,90.0
2018-06-03 03:50,50.6304383333333,-96.980765,5.8,8.5,93,979.04,13.7,100,15.32,0.0,1005.31,90.0
2018-06-03 04:00,50.6304383333333,-96.9807683333333,5.8,9.2,109,979.11,13.7,100,15.34,0.0,1005.38,302.3
2018-06-03 04:10,50.6304383333333,-96.9807633333333,3.0,8.1,136,979.34,13.2,100,15.36,0.0,1005.65,302.3
2018-06-03 04:20,50.6304383333333,-96.9807583333333,2.3,5.0,265,979.55,12.8,100,15.36,0.0,1005.87,302.3
2018-06-03 04:30,50.6304383333333,-96.9807566666667,1.9,3.4,326,979.51,12.8,101,15.32,0.0,1005.83,302.3
2018-06-03 04:40,50.6304383333333,-96.9807566666667,2.7,3.8,325,979.55,12.7,101,15.32,0.0,1005.89,302.3
2018-06-03 04:50,50.63045,-96.98076,3.7,5.2,324,979.59,12.6,101,15.35,0.0,1005.93,302.3
2018-06-03 05:00,50.6304483333333,-96.980765,4.4,6.2,334,979.63,12.6,101,15.37,0.0,1005.97,360.0
2018-06-03 05:10,50.6304483333333,-96.9807633333333,4.4,6.7,327,979.65,12.6,101,15.37,0.0,1005.99,360.0
2018-06-03 05:20,50.6304483333333,-96.9807633333333,4.9,6.8,314,979.66,12.5,101,15.36,0.0,1006.01,360.0
2018-06-03 05:30,50.6304466666667,-96.9807633333333,5.7,12.2,301,979.62,12.4,101,15.35,0.0,1005.97,360.0
2018-06-03 05:40,50.6304466666667,-96.9807633333333,11.3,16.0,311,979.43,12.3,101,15.35,0.0,1005.78,360.0
2018-06-03 05:50,50.630445,-96.9807616666667,8.4,13.4,311,979.63,12.2,101,15.36,0.0,1005.99,360.0
2018-06-03 06:00,50.630445,-96.9807633333333,10.9,18.8,311,979.59,12.1,101,15.36,0.0,1005.98,270.0
2018-06-03 06:10,50.6304416666667,-96.9807566666667,11.9,19.7,309,979.63,12.0,101,15.38,0.0,1006.05,270.0
2018-06-03 06:20,50.6304416666667,-96.9807633333333,10.9,15.9,311,979.78,11.8,101,15.37,0.0,1006.21,270.0
2018-06-03 06:30,50.63044,-96.9807633333333,11.2,18.3,305,979.91,11.6,101,15.32,0.0,1006.35,270.0
2018-06-03 06:40,50.6304383333333,-96.9807616666667,13.3,19.9,300,980.04,10.7,101,15.33,0.0,1006.54,270.0
2018-06-03 06:50,50.6304366666667,-96.98076,13.8,22.1,301,980.23,10.3,101,15.32,0.0,1006.75,270.0
2018-06-03 07:00,50.6304383333333,-96.9807633333333,13.4,21.1,304,980.34,10.1,101,15.30,0.0,1006.88,0.0
2018-06-03 07:10,50.6304383333333,-96.9807616666667,11.2,17.7,305,980.50,10.1,101,15.29,0.0,1007.04,0.0
2018-06-03 07:20,50.6304383333333,-96.98076,13.6,20.0,304,980.55,10.1,100,15.28,0.0,1007.10,0.0
2018-06-03 07:30,50.6304383333333,-96.9807583333333,13.1,23.5,305,980.64,10.0,100,15.29,0.0,1007.20,0.0
2018-06-03 07:40,50.6304383333333,-96.9807583333333,13.9,20.8,305,980.70,9.9,100,15.31,0.0,1007.27,0.0
2018-06-03 07:50,50.6304383333333,-96.9807566666667,12.5,20.0,300,980.78,9.9,100,15.28,0.0,1007.36,0.0
2018-06-03 08:00,50.6304366666667,-96.9807566666667,12.9,19.9,304,980.86,9.8,100,15.25,0.0,1007.45,165.5
2018-06-03 08:10,50.6304366666667,-96.9807566666667,12.8,23.5,305,980.99,9.8,100,15.22,0.0,1007.59,165.5
2018-06-03 08:20,50.6304383333333,-96.9807566666667,12.8,20.5,307,981.13,9.8,100,15.21,0.0,1007.75,165.5
2018-06-03 08:30,50.630435,-96.9807633333333,13.7,20.8,310,981.21,9.8,100,15.18,0.0,1007.87,165.5
2018-06-03 08:40,50.6304366666667,-96.98075,13.4,22.3,309,981.37,9.8,100,15.17,0.0,1008.06,165.5
2018-06-03 08:50,50.6304383333333,-96.9807483333333,14.7,26.9,308,981.44,9.8,100,15.16,0.0,1008.14,165.5
2018-06-03 09:00,50.6304016666667,-96.9807433333333,12.6,22.2,308,981.75,9.7,100,15.15,0.0,1008.45,151.2
2018-06-03 09:10,50.6304233333333,-96.980745,12.4,18.7,311,981.88,9.6,100,15.13,0.0,1008.60,151.2
2018-06-03 09:20,50.63043,-96.9807466666667,8.9,13.9,308,982.08,9.4,100,15.11,0.0,1008.81,151.2
2018-06-03 09:30,50.6304333333333,-96.9807483333333,10.3,17.0,302,982.11,9.3,100,15.13,0.0,1008.85,151.2
2018-06-03 09:40,50.630435,-96.9807516666667,11.0,16.1,306,982.31,9.2,100,15.14,0.0,1009.07,151.2
2018-06-03 09:50,50.630435,-96.98075,13.2,19.8,308,982.39,9.1,100,15.15,0.0,1009.17,151.2
2018-06-03 10:00,50.6304333333333,-96.9807516666667,11.5,17.7,310,982.67,9.2,100,15.14,0.0,1009.44,143.4
2018-06-03 10:10,50.6304333333333,-96.9807516666667,12.5,20.1,308,982.77,9.2,100,15.10,0.0,1009.54,143.4
2018-06-03 10:20,50.6304333333333,-96.9807516666667,12.6,21.4,306,982.94,9.1,100,15.09,0.0,1009.73,143.4
2018-06-03 10:30,50.630435,-96.9807533333333,12.4,19.4,306,983.22,8.9,100,15.10,0.0,1010.02,143.4
2018-06-03 10:40,50.630435,-96.9807533333333,14.6,23.4,309,983.30,8.8,99,15.05,0.0,1010.11,143.4
2018-06-03 10:50,50.6304333333333,-96.9807533333333,14.7,23.9,311,983.42,8.8,98,15.02,0.0,1010.24,143.4
2018-06-03 11:00,50.630435,-96.9807533333333,12.7,19.8,307,983.73,8.8,96,15.03,0.0,1010.56,90.0
2018-06-03 11:10,50.630435,-96.9807533333333,12.7,20.1,312,983.86,8.9,92,15.05,0.0,1010.69,90.0
2018-06-03 11:20,50.630435,-96.980755,12.1,17.7,308,984.09,8.8,90,15.05,0.0,1010.95,90.0
2018-06-03 11:30,50.630435,-96.980755,11.8,19.0,310,984.31,8.8,90,15.05,0.0,1011.18,90.0
2018-06-03 11:40,50.630435,-96.9807566666667,11.0,18.7,310,984.53,8.7,92,15.06,0.0,1011.42,90.0
2018-06-03 11:50,50.6304366666667,-96.9807566666667,10.0,20.6,306,984.66,8.8,92,15.05,0.0,1011.54,90.0
2018-06-03 12:00,50.6304366666667,-96.9807566666667,11.1,18.5,309,984.73,9.0,92,15.03,0.0,1011.60,336.5
2018-06-03 12:10,50.6304366666667,-96.9807566666667,9.9,17.0,302,984.91,9.1,94,14.99,0.0,1011.79,336.5
2018-06-03 12:20,50.6304366666667,-96.9807566666667,9.7,15.2,302,985.04,9.0,96,14.97,0.0,1011.94,336.5
2018-06-03 12:30,50.6304366666667,-96.9807566666667,9.1,14.3,299,985.19,8.7,99,14.98,0.0,1012.10,336.5
2018-06-03 12:40,50.6304366666667,-96.9807566666667,8.3,13.3,296,985.35,8.5,100,14.95,0.0,1012.27,336.5
2018-06-03 12:50,50.6304366666667,-96.9807566666667,8.4,12.4,302,985.45,8.7,99,14.92,0.0,1012.37,336.5
2018-06-03 13:00,50.6304366666667,-96.9807566666667,9.2,16.7,299,985.42,8.9,99,14.91,0.0,1012.33,311.7
2018-06-03 13:10,50.6304366666667,-96.9807566666667,10.5,20.6,299,985.44,9.1,92,14.92,0.0,1012.34,311.7
2018-06-03 13:20,50.630425,-96.9807583333333,9.1,18.3,296,985.67,9.2,90,14.90,0.0,1012.57,311.7
2018-06-03 13:30,50.630425,-96.98075,12.1,17.3,298,985.61,9.1,87,14.88,0.0,1012.53,311.7
2018-06-03 13:40,50.630435,-96.9807533333333,12.9,20.8,299,985.68,9.1,86,14.86,0.0,1012.59,311.7
2018-06-03 13:50,50.6304366666667,-96.980755,13.2,21.7,306,985.73,9.0,83,14.85,0.0,1012.64,311.7
2018-06-03 14:00,50.6304366666667,-96.9807516666667,10.0,18.1,300,986.02,8.9,84,14.83,0.0,1012.93,0.0
2018-06-03 14:10,50.630435,-96.9807516666667,12.0,20.2,294,986.10,8.5,87,14.82,0.0,1013.04,0.0
2018-06-03 14:20,50.630435,-96.9807516666667,10.3,17.8,298,986.16,8.4,87,14.82,0.0,1013.13,0.0
2018-06-03 14:30,50.6304366666667,-96.9807516666667,11.1,21.2,299,986.21,8.7,84,14.82,0.0,1013.17,0.0
2018-06-03 14:40,50.6304366666667,-96.9807516666667,11.2,17.1,308,986.26,8.9,80,14.82,0.0,1013.20,0.0
2018-06-03 14:50,50.6304366666667,-96.9807533333333,12.9,20.3,311,986.20,9.2,77,14.81,0.0,1013.11,0.0
2018-06-03 15:00,50.6304366666667,-96.9807533333333,10.1,14.8,310,986.27,9.6,76,14.82,0.0,1013.16,90.0
2018-06-03 15:10,50.6304483333333,-96.980755,12.0,19.1,298,986.28,9.8,74,14.82,0.0,1013.15,90.0
2018-06-03 15:20,50.6304416666667,-96.9807566666667,11.0,17.9,309,986.35,10.3,71,14.85,0.0,1013.21,90.0
2018-06-03 15:30,50.6304416666667,-96.9807566666667,10.9,17.8,317,986.43,10.6,69,14.86,0.0,1013.27,90.0
2018-06-03 15:40,50.630435,-96.98075,10.1,16.1,308,986.46,11.0,68,14.88,0.0,1013.29,90.0
2018-06-03 15:50,50.63044,-96.9807516666667,10.5,17.4,310,986.43,11.4,65,14.89,0.0,1013.24,90.0
2018-06-03 16:00,50.6304366666667,-96.98075,10.7,19.5,312,986.37,11.8,63,14.91,0.0,1013.18,90.0
2018-06-03 16:10,50.630435,-96.98075,11.1,21.3,307,986.51,12.2,61,14.92,0.0,1013.31,90.0
2018-06-03 16:20,50.6304366666667,-96.9807516666667,12.3,20.0,308,986.48,12.4,60,14.99,0.0,1013.26,90.0
2018-06-03 16:30,50.6304383333333,-96.9807866666667,12.7,18.1,303,986.53,12.9,58,15.03,0.0,1013.28,90.0
2018-06-03 16:40,50.6304366666667,-96.9806983333333,14.1,23.8,314,986.37,13.1,57,15.06,0.0,1013.08,90.0
2018-06-03 16:50,50.630435,-96.9807266666667,12.3,19.1,306,986.50,13.4,56,15.08,0.0,1013.19,90.0
2018-06-03 17:00,50.6304383333333,-96.980755,12.2,25.7,315,986.52,13.5,56,15.09,0.0,1013.20,347.4
2018-06-03 17:10,50.6304383333333,-96.9807516666667,12.0,19.8,305,986.51,13.8,54,15.08,0.0,1013.15,347.4
2018-06-03 17:20,50.6304366666667,-96.9807566666667,13.1,23.5,306,986.40,14.4,53,15.12,0.0,1012.99,347.4
2018-06-03 17:30,50.6304383333333,-96.9807583333333,12.9,20.3,301,986.47,14.4,54,15.20,0.0,1013.05,347.4
2018-06-03 17:40,50.6304366666667,-96.9807566666667,10.4,18.6,293,986.51,14.4,55,15.22,0.0,1013.06,347.4
2018-06-03 17:50,50.6304366666667,-96.9807566666667,11.1,19.7,293,986.47,14.7,54,15.24,0.0,1012.99,347.4
2018-06-03 18:00,50.6304383333333,-96.9807566666667,11.0,19.2,289,986.53,14.8,53,15.30,0.0,1013.03,347.4
2018-06-03 18:10,50.6304383333333,-96.980755,11.9,19.6,301,986.31,15.0,52,15.39,0.0,1012.79,347.4
2018-06-03 18:20,50.6304366666667,-96.980755,10.8,17.7,284,986.47,15.1,52,15.43,0.0,1012.92,347.4
2018-06-03 18:30,50.6304366666667,-96.980755,13.5,23.1,301,986.21,15.4,51,15.44,0.0,1012.63,347.4
2018-06-03 18:40,50.6304366666667,-96.980755,13.0,20.6,294,986.29,15.4,50,15.46,0.0,1012.70,347.4
2018-06-03 18:50,50.6304366666667,-96.980755,13.0,20.6,291,986.25,15.7,50,15.46,0.0,1012.63,347.4
2018-06-03 19:00,50.6304366666667,-96.980755,10.0,17.0,285,986.33,15.9,50,15.49,0.0,1012.70,270.0
2018-06-03 19:10,50.6304366666667,-96.980755,12.9,19.6,296,986.18,16.1,48,15.52,0.0,1012.51,270.0
2018-06-03 19:20,50.6304366666667,-96.980755,13.6,26.3,298,986.15,16.2,47,15.55,0.0,1012.47,270.0
2018-06-03 19:30,50.6304383333333,-96.980755,10.6,22.4,286,986.35,16.4,48,15.57,0.0,1012.67,270.0
2018-06-03 19:40,50.6304383333333,-96.980755,11.9,18.7,295,986.24,16.2,48,15.57,0.0,1012.55,270.0
2018-06-03 19:50,50.6304383333333,-96.980755,11.5,20.5,295,986.23,16.4,49,15.55,0.0,1012.53,270.0
2018-06-03 20:00,50.630445,-96.9807716666667,12.0,22.3,287,986.24,16.5,48,15.55,0.0,1012.52,270.0
2018-06-03 20:10,50.630445,-96.98077,10.3,18.8,292,986.27,17.0,47,15.54,0.0,1012.53,270.0
2018-06-03 20:20,50.6304183333333,-96.980765,11.5,21.2,299,986.21,17.1,46,15.56,0.0,1012.44,270.0
2018-06-03 20:30,50.6304583333333,-96.980795,11.8,19.6,289,986.21,17.3,46,15.63,0.0,1012.44,270.0
2018-06-03 20:40,50.63044,-96.9807533333333,13.7,21.9,293,986.07,17.3,45,15.68,0.0,1012.28,270.0
2018-06-03 20:50,50.63044,-96.9807483333333,12.7,21.0,292,986.09,17.5,45,15.70,0.0,1012.28,270.0
2018-06-03 21:00,50.63044,-96.9807533333333,12.1,22.6,305,986.03,17.7,45,15.72,0.0,1012.20,90.0
2018-06-03 21:10,50.63044,-96.9807533333333,13.1,20.8,313,985.93,17.7,45,15.76,0.0,1012.10,90.0
2018-06-03 21:20,50.63044,-96.9807516666667,11.2,18.7,316,986.03,17.8,45,15.78,0.0,1012.19,90.0
2018-06-03 21:30,50.6304383333333,-96.980755,12.2,20.9,319,985.89,18.1,45,15.80,0.0,1012.03,90.0
2018-06-03 21:40,50.6304383333333,-96.980755,12.2,18.7,312,985.83,17.9,45,15.81,0.0,1011.98,90.0
2018-06-03 21:50,50.6304433333333,-96.9807716666667,11.4,18.4,315,985.89,17.8,44,15.81,0.0,1012.03,90.0
2018-06-03 22:00,50.6304383333333,-96.9807783333333,12.5,19.8,309,985.86,18.0,44,15.81,0.0,1011.97,287.7
2018-06-03 22:10,50.6304366666667,-96.980765,9.7,19.5,288,985.93,18.5,43,15.81,0.0,1012.02,287.7
2018-06-03 22:20,50.6304383333333,-96.9807633333333,8.9,15.8,295,985.97,18.4,43,15.81,0.0,1012.06,287.7
2018-06-03 22:30,50.6304383333333,-96.9807633333333,9.7,15.8,307,985.85,18.7,43,15.80,0.0,1011.92,287.7
2018-06-03 22:40,50.6304383333333,-96.9807633333333,10.7,18.0,309,985.75,19.1,42,15.81,0.0,1011.79,287.7
2018-06-03 22:50,50.6304233333333,-96.9807316666667,10.2,17.3,310,985.79,18.7,42,15.84,0.0,1011.84,287.7
2018-06-03 23:00,50.6304366666667,-96.9807616666667,11.4,21.9,302,985.79,18.9,41,15.87,0.0,1011.82,119.2
2018-06-03 23:10,50.63044,-96.9807633333333,9.1,14.2,295,985.94,18.7,42,15.87,0.0,1011.99,119.2
2018-06-03 23:20,50.6304383333333,-96.9807683333333,10.1,17.7,291,985.88,18.7,42,15.86,0.0,1011.91,119.2
2018-06-03 23:30,50.6304383333333,-96.9807683333333,11.2,18.2,298,985.81,18.9,41,15.85,0.0,1011.84,119.2
2018-06-03 23:40,50.6304383333333,-96.9807683333333,9.9,20.6,290,985.88,18.6,41,15.87,0.0,1011.93,119.2
